User: anonymous   Login
Location: Krakow
(50.0212°N, 19.9423°E)
Time: 00:36:52
(UTC+02:00)
Language:

CAS-4A - Orbit

View from above orbital plane
View from above orbital plane
View from above satellite
View from above satellite

Ground track
Ground track

The orbit data is extracted from the following two-line orbital elements,

1 42761U 17034D   24109.53126749  .00025593  00000-0  98537-3 0  9997
2 42761  43.0169 201.5130 0012572 316.7777  43.2087 15.25824562378295
Epoch (UTC): 18 April 2024 12:45:01
Eccentricity: 0.0012572
inclination: 43.0169°
perigee height: 479 km
apogee height: 497 km
right ascension of ascending node: 201.5130°
argument of perigee: 316.7777°
revolutions per day: 15.25824562
mean anomaly at epoch: 43.2087°
orbit number at epoch: 37829

The dashed part of the orbit path shows where the satellite is in the earth's shadow,  

DLR